Stations météo

Publicité
Alencon, France (7139): Température de l'air & dewpoint: 31.03.2020 15:00:00 - 06.04.2020 15:00:00 (CEST)Alencon, France (7139): Température de l'air 5cm: 31.03.2020 15:00:00 - 06.04.2020 15:00:00 (CEST)Alencon, France (7139): Température de l'air -20cm & Température de l'air -100cm: 31.03.2020 15:00:00 - 06.04.2020 15:00:00 (CEST)Alencon, France (7139): Vitesse du vent & gusts: 31.03.2020 15:00:00 - 06.04.2020 15:00:00 (CEST)Alencon, France (7139): Direction du vent: 31.03.2020 15:00:00 - 06.04.2020 15:00:00 (CEST)Alencon, France (7139): reduced air pressure: 31.03.2020 15:00:00 - 06.04.2020 15:00:00 (CEST)Alencon, France (7139): visibility: 31.03.2020 15:00:00 - 06.04.2020 15:00:00 (CEST)Alencon, France (7139): Ensoleillement: 31.03.2020 15:00:00 - 06.04.2020 15:00:00 (CEST)Alencon, France (7139): Quantités de précipitations: 31.03.2020 15:00:00 - 06.04.2020 15:00:00 (CEST)
Date & Time tt [°C] td [°C] tt 5cm [°C] tt -20cm [°C] tt -100cm [°C] ff [km/h] ff [knt] fx [km/h] fx [knt] dd ppp [hPa] vv [km] sd [min] rr [mm]
06.04.2020 15:00:00 16,2 10,9 17,0 9,4 8,8 18 10 31 17 SSE 1021,5 19 39 0,0
06.04.2020 14:00:00 14,6 10,0 17,8 9,4 8,7 16 9 29 16 S 1021,0 18 50 0,0
06.04.2020 13:00:00 13,5 10,1 15,3 9,3 8,7 17 9 27 15 S 1020,7 19 11 0,0
06.04.2020 12:00:00 12,4 8,9 12,0 9,3 8,7 19 10 28 15 S 1019,9 19 4 0,0
06.04.2020 11:00:00 11,3 7,6 11,7 9,3 8,7 14 8 22 12 S 1019,6 20 0 0,0
06.04.2020 10:00:00 10,7 6,6 8,7 9,3 8,7 11 6 21 12 S 1018,3 20 0 0,0
06.04.2020 09:00:00 10,4 5,6 8,4 9,4 8,7 10 5 19 11 S 1017,0 20 0 0,2
06.04.2020 08:00:00 11,1 3,9 8,1 9,5 8,7 12 6 24 13 S 1016,3 20 0 0,0
06.04.2020 07:00:00 12,1 1,4 10,0 9,5 8,7 3 2 18 10 SW 1015,3 20 0 0,0
06.04.2020 06:00:00 11,9 1,8 8,8 9,6 8,7 13 7 19 10 S 1014,7 20 0 0,0
06.04.2020 05:00:00 11,2 2,2 7,9 9,7 8,7 8 4 21 12 S 1014,5 20 0 0,0
06.04.2020 04:00:00 10,8 2,6 6,0 9,7 8,7 8 4 16 8 S 1014,4 20 0 0,0
06.04.2020 03:00:00 10,7 2,3 2,6 9,9 8,7 8 4 15 8 SSE 1014,2 20 0 0,0
06.04.2020 02:00:00 9,5 2,6 2,6 10,0 8,7 4 2 13 7 S 1013,9 20 0 0,0
06.04.2020 01:00:00 13,2 3,3 2,7 10,0 8,7 11 6 17 9 S 1013,6 20 0 0,0
06.04.2020 00:00:00 12,0 2,7 3,9 10,1 8,7 5 3 13 7 S 1013,5 20 0 0,0
05.04.2020 23:00:00 13,3 3,6 4,7 10,1 8,7 5 3 10 5 SSE 1013,4 20 0 0,0
05.04.2020 22:00:00 14,1 4,4 4,7 10,1 8,7 5 3 8 5 S 1013,3 20 0 0,0
05.04.2020 21:00:00 16,9 3,9 10,2 9,9 8,6 4 2 17 9 S 1012,6 20 0 0,0
05.04.2020 20:00:00 19,7 4,2 18,7 9,8 8,6 11 6 31 17 SE 1011,9 20 60 0,0
05.04.2020 19:00:00 21,0 4,9 23,2 9,6 8,7 14 8 36 19 SSE 1012,0 20 60 0,0
05.04.2020 18:00:00 21,5 4,5 25,0 9,4 8,6 19 10 37 20 SSE 1012,4 20 60 0,0
05.04.2020 17:00:00 21,6 5,1 25,4 9,0 8,6 20 11 37 20 S 1012,6 20 60 0,0
05.04.2020 16:00:00 21,4 5,3 25,9 8,8 8,6 18 10 35 19 SSE 1013,1 20 60 0,0
05.04.2020 15:00:00 20,5 5,3 24,9 8,6 8,6 18 10 31 17 SSE 1013,6 20 60 0,0
05.04.2020 14:00:00 19,4 5,1 24,2 8,4 8,6 16 9 32 17 SE 1014,0 20 60 0,0
05.04.2020 13:00:00 17,5 4,8 22,6 8,3 8,6 16 9 27 15 S 1014,9 19 60 0,0
05.04.2020 12:00:00 15,5 4,2 19,5 8,3 8,6 13 7 28 15 SSE 1015,7 18 60 0,0
05.04.2020 11:00:00 13,5 3,3 12,9 8,3 8,6 16 9 27 15 SSE 1016,3 20 60 0,0
05.04.2020 10:00:00 11,8 3,3 12,9 8,4 8,6 0 0 5 3 N 1016,7 19 60 0,0
05.04.2020 09:00:00 6,4 3,2 -1,0 8,6 8,6 3 1 6 4 N 1017,1 20 60 0,0
05.04.2020 08:00:00 2,1 0,3 -3,8 8,7 8,6 5 3 10 5 NNE 1017,0 20 8 0,0
05.04.2020 07:00:00 1,7 -0,7 -3,8 8,8 8,6 4 2 7 4 N 1016,6 20 0 0,0
05.04.2020 06:00:00 2,8 -0,1 -3,1 8,9 8,6 2 1 5 3 NW 1016,5 20 0 0,0
05.04.2020 05:00:00 3,4 -0,3 -2,0 9,0 8,6 3 2 9 5 NNE 1016,6 20 0 0,0
05.04.2020 04:00:00 3,8 0,0 -0,9 9,1 8,6 7 4 10 5 N 1016,9 20 0 0,0
05.04.2020 03:00:00 5,4 0,2 -0,1 9,2 8,6 3 2 10 5 ENE 1017,5 20 0 0,0
05.04.2020 02:00:00 10,1 0,9 5,1 9,3 8,6 6 3 15 8 E 1017,7 20 0 0,0
05.04.2020 01:00:00 10,6 0,6 5,5 9,4 8,6 5 3 24 13 SE 1017,9 20 0 0,0
05.04.2020 00:00:00 11,9 0,9 5,4 9,4 8,6 13 7 23 12 E 1017,9 20 0 0,0
04.04.2020 23:00:00 10,5 1,3 5,6 9,4 8,6 8 4 17 9 E 1018,0 20 0 0,0
04.04.2020 22:00:00 11,8 1,4 7,6 9,4 8,6 8 5 16 9 E 1018,0 20 0 0,0
04.04.2020 21:00:00 13,3 1,6 8,7 9,4 8,6 8 4 21 11 E 1017,7 20 11 0,0
04.04.2020 20:00:00 15,7 1,8 15,5 9,2 8,6 16 8 27 15 E 1017,5 20 60 0,0
04.04.2020 19:00:00 16,7 2,3 19,2 9,0 8,6 15 8 30 16 ESE 1017,5 20 60 0,0
04.04.2020 18:00:00 16,9 1,7 20,7 8,7 8,6 16 9 35 19 ESE 1017,8 20 60 0,0
04.04.2020 17:00:00 17,0 2,6 21,8 8,5 8,6 17 9 31 17 ESE 1018,0 20 60 0,0
04.04.2020 16:00:00 16,6 2,2 21,7 8,2 8,5 18 10 29 16 ESE 1018,7 20 60 0,0
04.04.2020 15:00:00 16,3 2,7 21,3 8,0 8,6 15 8 34 19 SE 1019,3 20 60 0,0
04.04.2020 14:00:00 15,7 2,5 20,0 7,8 8,6 18 10 35 19 SE 1019,9 19 60 0,0
04.04.2020 13:00:00 15,4 3,5 18,7 7,7 8,6 13 7 21 12 SE 1020,3 20 58 0,0
04.04.2020 12:00:00 14,3 5,4 21,6 7,7 8,6 8 4 20 11 ESE 1020,8 19 60 0,0
04.04.2020 11:00:00 10,9 6,2 11,1 7,7 8,5 3 2 8 5 N 1021,5 18 60 0,0
04.04.2020 10:00:00 8,0 5,5 11,2 7,8 8,5 5 3 9 5 NE 1021,6 15 60 0,0
04.04.2020 09:00:00 4,8 4,4 -2,9 7,9 8,5 4 2 6 3 NNE 1021,6 14 60 0,0
04.04.2020 08:00:00 0,2 -0,4 -4,9 8,0 8,5 0 0 7 4 N 1021,8 9 6 0,0
04.04.2020 07:00:00 0,5 -0,1 -5,3 8,1 8,5 0 0 0 0 N 1021,6 17 0 0,0
04.04.2020 06:00:00 0,6 -0,1 -5,0 8,2 8,6 0 0 7 4 N 1021,5 7 0 0,0
04.04.2020 05:00:00 1,5 0,8 -4,3 8,4 8,5 2 1 5 3 NNE 1021,4 13 0 0,0
04.04.2020 04:00:00 1,8 0,9 -4,0 8,4 8,5 3 2 4 2 NNW 1021,6 9 0 0,0
04.04.2020 03:00:00 2,5 1,6 -2,9 8,5 8,6 5 3 8 4 N 1021,6 12 0 0,0
04.04.2020 02:00:00 3,1 1,9 -1,5 8,6 8,5 5 3 7 4 N 1021,7 12 0 0,0
04.04.2020 01:00:00 5,0 4,0 -0,5 8,6 8,5 3 2 10 6 SSE 1021,5 19 0 0,0
04.04.2020 00:00:00 5,6 3,1 1,3 8,7 8,5 7 4 9 5 N 1021,3 19 0 0,0
03.04.2020 23:00:00 8,1 5,0 5,3 8,7 8,5 6 3 9 5 NE 1021,1 20 0 0,0
03.04.2020 22:00:00 9,0 5,2 6,2 8,6 8,5 5 3 9 5 NNE 1020,9 20 0 0,0
03.04.2020 21:00:00 9,9 5,5 7,5 8,6 8,5 5 3 10 5 NNE 1020,3 20 0 0,0
03.04.2020 20:00:00 10,8 5,3 10,1 8,5 8,6 5 3 16 9 NNE 1020,0 20 0 0,0
03.04.2020 19:00:00 11,5 5,4 11,7 8,4 8,5 9 5 22 12 NNE 1019,9 20 0 0,0
03.04.2020 18:00:00 12,9 4,6 12,7 8,3 8,5 9 5 15 8 W 1019,4 20 0 0,0
03.04.2020 17:00:00 13,2 4,3 14,0 8,2 8,5 8 5 17 9 WNW 1019,4 20 0 0,0
03.04.2020 16:00:00 13,0 4,7 14,5 8,0 8,5 8 5 19 10 NW 1019,5 20 0 0,0
03.04.2020 15:00:00 13,6 5,2 15,5 7,8 8,5 11 6 21 12 WNW 1019,5 20 2 0,0
03.04.2020 14:00:00 13,1 6,9 15,6 7,7 8,6 8 5 19 10 SW 1019,6 19 21 0,0
03.04.2020 13:00:00 12,1 7,4 14,7 7,7 8,5 6 4 11 6 SW 1020,2 19 0 0,0
03.04.2020 12:00:00 10,5 6,1 12,1 7,6 8,5 3 2 10 6 S 1020,2 18 0 0,0
03.04.2020 11:00:00 9,2 5,9 10,1 7,6 8,6 8 4 16 9 WNW 1020,1 18 0 0,0
03.04.2020 10:00:00 8,1 5,7 7,9 7,7 8,6 8 4 14 8 W 1019,4 17 0 0,0
03.04.2020 09:00:00 7,1 5,2 5,9 7,6 8,5 7 4 16 9 WSW 1019,3 18 0 0,0
03.04.2020 08:00:00 6,3 4,6 5,3 7,7 8,6 10 5 16 9 W 1019,0 15 0 0,0
03.04.2020 07:00:00 6,6 4,9 5,8 7,7 8,5 9 5 12 7 W 1018,6 14 0 0,0
03.04.2020 06:00:00 6,6 4,9 5,8 7,7 8,5 6 3 14 8 WSW 1018,3 15 0 0,0
03.04.2020 05:00:00 6,7 4,9 5,3 7,8 8,5 7 4 13 7 W 1018,1 15 0 0,0
03.04.2020 04:00:00 6,2 5,3 -0,3 7,8 8,5 6 4 10 6 WNW 1018,1 16 0 0,0
03.04.2020 03:00:00 4,6 3,1 0,1 7,9 8,6 7 4 14 7 W 1018,1 16 0 0,0
03.04.2020 02:00:00 5,7 3,9 3,2 7,9 8,6 11 6 18 10 W 1018,0 19 0 0,0
03.04.2020 01:00:00 6,6 3,9 4,8 8,0 8,6 13 7 19 10 WNW 1018,2 20 0 0,0
03.04.2020 00:00:00 7,0 3,8 4,6 8,0 8,5 5 3 14 8 W 1018,4 20 0 0,0
02.04.2020 23:00:00 6,6 3,2 4,2 8,0 8,5 10 5 22 12 W 1018,4 20 0 0,0
02.04.2020 22:00:00 8,0 3,5 6,2 8,0 8,6 9 5 18 10 WNW 1018,1 20 0 0,0
02.04.2020 21:00:00 8,5 2,5 6,4 7,9 8,6 8 5 17 9 WNW 1017,7 20 0 0,0
02.04.2020 20:00:00 9,0 2,1 8,2 7,8 8,6 9 5 22 12 NNW 1017,5 20 0 0,0
02.04.2020 19:00:00 9,4 1,5 9,4 7,7 8,5 12 6 23 13 NW 1017,4 20 0 0,0
02.04.2020 18:00:00 9,7 1,3 11,3 7,6 8,6 14 8 23 12 NNW 1017,2 20 0 0,0
02.04.2020 17:00:00 9,4 -0,2 12,6 7,5 8,6 15 8 25 13 NNW 1017,3 20 4 0,0
02.04.2020 16:00:00 9,2 0,1 12,5 7,4 8,6 12 7 27 15 NNW 1017,8 20 6 0,0
02.04.2020 15:00:00 8,9 -1,0 12,7 7,3 8,6 16 9 26 14 N 1017,9 19 5 0,0
02.04.2020 14:00:00 7,8 -0,7 9,3 7,2 8,6 10 5 19 10 NNW 1018,4 20 0 0,0
02.04.2020 13:00:00 7,7 -1,5 10,2 7,1 8,6 13 7 20 11 NNE 1018,6 20 0 0,0
02.04.2020 12:00:00 8,0 -1,8 11,7 7,1 8,6 18 10 28 15 NNE 1018,7 20 49 0,0
02.04.2020 11:00:00 7,7 -1,8 7,6 7,2 8,6 10 6 18 10 NE 1018,8 18 60 0,0
02.04.2020 10:00:00 5,7 -0,4 7,1 7,3 8,6 3 2 5 3 E 1018,9 18 60 0,0
02.04.2020 09:00:00 2,1 -1,5 -4,8 7,4 8,6 0 0 4 2 N 1018,9 15 60 0,0
02.04.2020 08:00:00 -0,9 -2,9 -6,0 7,5 8,6 3 2 6 4 E 1018,8 14 2 0,0
02.04.2020 07:00:00 -0,1 -3,0 -3,3 7,6 8,6 5 3 11 6 E 1018,5 16 0 0,0
02.04.2020 06:00:00 1,3 -2,6 -1,8 7,7 8,6 7 4 18 10 NE 1018,5 20 0 0,0
02.04.2020 05:00:00 1,9 -2,4 -1,8 7,8 8,6 13 7 18 10 NNE 1018,5 20 0 0,0
02.04.2020 04:00:00 2,6 -2,5 0,1 7,9 8,6 8 4 17 9 NE 1018,8 20 0 0,0
02.04.2020 03:00:00 2,9 -1,8 0,5 8,0 8,6 11 6 19 11 NNE 1019,0 20 0 0,0
02.04.2020 02:00:00 3,4 -1,8 0,7 8,1 8,6 9 5 18 10 NNE 1019,3 19 0 0,0
02.04.2020 01:00:00 3,9 -1,7 1,0 8,2 8,6 11 6 21 11 NNE 1019,4 20 0 0,0
02.04.2020 00:00:00 4,3 -1,1 1,6 8,2 8,6 9 5 19 10 NNE 1019,6 19 0 0,0
01.04.2020 23:00:00 5,3 -0,8 2,9 8,3 8,6 12 7 28 15 N 1019,3 19 0 0,0
01.04.2020 22:00:00 6,6 0,1 3,8 8,2 8,6 17 9 29 16 N 1018,8 19 0 0,0
01.04.2020 21:00:00 7,1 0,5 4,5 8,2 8,6 16 8 26 14 NNW 1018,3 19 7 0,0
01.04.2020 20:00:00 10,3 -3,1 9,4 8,1 8,6 12 7 25 13 N 1017,9 20 60 0,0
01.04.2020 19:00:00 11,7 -3,7 14,1 7,9 8,6 18 10 30 16 N 1018,1 20 60 0,0
01.04.2020 18:00:00 12,5 -1,5 17,1 7,7 8,6 20 11 28 15 N 1018,1 19 60 0,0
01.04.2020 17:00:00 12,5 -1,8 17,3 7,4 8,6 16 9 31 17 NE 1018,5 19 60 0,0
01.04.2020 16:00:00 11,9 -3,5 18,1 7,2 8,6 17 9 39 21 NNE 1019,1 18 60 0,0
01.04.2020 15:00:00 11,4 -3,2 18,1 7,0 8,6 16 9 30 16 ENE 1019,6 18 60 0,0
01.04.2020 14:00:00 11,2 -2,6 17,1 6,9 8,6 16 8 31 17 ENE 1020,3 20 60 0,0
01.04.2020 13:00:00 10,1 -4,3 15,8 6,8 8,6 18 10 31 17 ENE 1021,1 20 60 0,0
01.04.2020 12:00:00 9,5 -2,2 14,1 6,8 8,6 16 8 24 13 ENE 1021,8 19 60 0,0
01.04.2020 11:00:00 6,9 -1,8 5,5 6,8 8,6 14 8 22 12 NNE 1022,4 17 60 0,0
01.04.2020 10:00:00 4,3 -2,6 5,5 6,9 8,6 14 8 24 13 NE 1022,8 16 60 0,0
01.04.2020 09:00:00 2,3 -3,2 -2,1 7,0 8,6 11 6 16 9 NE 1023,1 14 60 0,0
01.04.2020 08:00:00 -0,4 -3,9 -3,4 7,1 8,6 10 5 14 8 NNE 1023,2 12 0 0,0
01.04.2020 07:00:00 -0,2 -4,1 -4,0 7,2 8,6 11 6 15 8 NNE 1023,0 12 0 0,0
01.04.2020 06:00:00 0,2 -3,9 -2,1 7,3 8,7 7 4 20 11 NNE 1023,1 12 0 0,0
01.04.2020 05:00:00 0,6 -3,3 -1,7 7,4 8,6 12 6 18 10 NNE 1023,2 12 0 0,0
01.04.2020 04:00:00 1,3 -3,0 -1,2 7,5 8,7 11 6 20 11 NNE 1023,7 12 0 0,0
01.04.2020 03:00:00 2,5 -2,6 -0,2 7,6 8,7 15 8 23 12 NNE 1024,1 13 0 0,0
01.04.2020 02:00:00 2,4 -2,5 -0,5 7,7 8,7 12 6 18 10 NNE 1024,5 15 0 0,0
01.04.2020 01:00:00 3,7 -3,4 1,7 7,8 8,7 12 6 18 10 NNE 1024,7 19 0 0,0
01.04.2020 00:00:00 5,0 -4,6 2,4 7,8 8,7 11 6 22 12 NE 1024,9 20 0 0,0
31.03.2020 23:00:00 5,6 -2,7 3,2 7,8 8,7 14 7 24 13 NE 1024,9 20 0 0,0
31.03.2020 22:00:00 6,1 -1,3 3,9 7,8 8,7 14 8 26 14 NNE 1024,8 20 0 0,0
31.03.2020 21:00:00 7,4 -1,1 5,6 7,8 8,7 16 9 35 19 NNE 1024,5 20 5 0,0
31.03.2020 20:00:00 8,9 -0,7 8,6 7,7 8,7 21 11 42 23 NE 1024,0 20 60 0,0
31.03.2020 19:00:00 10,0 -0,5 11,9 7,5 8,7 27 14 41 22 NNE 1023,9 20 60 0,0
31.03.2020 18:00:00 10,5 -0,6 11,5 7,4 8,7 28 15 47 25 NE 1023,9 20 52 0,0
31.03.2020 17:00:00 10,4 -0,2 11,3 7,2 8,7 26 14 45 25 NE 1024,5 20 39 0,0
31.03.2020 16:00:00 10,2 0,2 11,8 7,0 8,7 27 15 47 26 NE 1025,1 20 46 0,0
31.03.2020 15:00:00 9,9 0,8 10,7 6,9 8,7 24 13 44 24 NE 1025,6 18 49 0,0

tt = Température de l'air
td = dewpoint
tt 5cm = Température de l'air 5cm
tt -20cm = Température de l'air -20cm
tt -100cm = Température de l'air -100cm
ff = Vitesse du vent
fx = gusts
dd = Direction du vent
ppp = reduced air pressure
vv = visibility
sd = Ensoleillement
rr = Quantités de précipitations

stations d'obs. à proximité